Location: Newark
(5.8900°S, 42.6378°W)
Time: 03:57:33
(UTC+00:00)

X-37B - Pass Details

Date: 26 September 2020
Orbit: 382 x 392 km, 45.0° (Epoch: 15 October)

Event Time Altitude Azimuth Distance (km) Brightness Sun altitude
Rises 21:28:18 0° 240° (WSW) 2,269 5.7 -11.4°
Reaches altitude 10° 21:30:35 10° 253° (WSW) 1,409 4.8 -12.0°
Maximum altitude 21:33:17 26° 312° (NW) 804 2.7 -12.7°
Drops below altitude 10° 21:35:59 10° 11° (N) 1,396 3.3 -13.3°
Enters shadow 21:37:16 - 20° (NNE) 1,870 3.8 -13.7°
